Rochester, NY

12:39 PM EST on February 08, 2016 (GMT -0500)
Greater Rochester International

Weather History for KROC - May, 2014

Change the Weather History Date:

Saturday, May 24, 2014

  Actual Average Record
Temperature  
Mean Temperature 63 °F 59 °F  
Max Temperature 75 °F 70 °F 91 °F (2007)
Min Temperature 50 °F 49 °F 31 °F (1956)
Degree Days  
Heating Degree Days 2 7  
Month to date heating degree days 171 235  
Since 1 July heating degree days 6966 6538  
Cooling Degree Days 0 1  
Month to date cooling degree days 25 15  
Year to date cooling degree days 26 19  
Growing Degree Days 12 (Base 50)    
Moisture  
Dew Point 49 °F    
Average Humidity 62    
Maximum Humidity 93    
Minimum Humidity 31    
Precipitation  
Precipitation 0.00 in 0.10 in 0.98 in (2004)
Month to date precipitation 3.17 2.22  
Year to date precipitation 13.00 11.81  
Snow  
Snow 0.00 in 0.00 in T in (1925)
Month to date snowfall 0.0 0.4  
Since 1 July snowfall 112.7 99.5  
Snow Depth 0.00 in    
Sea Level Pressure  
Sea Level Pressure 30.09 in    
Wind  
Wind Speed 8 mph (WNW)    
Max Wind Speed 16 mph    
Max Gust Speed 24 mph    
Visibility 10 miles    
Events      
T = Trace of Precipitation, MM = Missing Value Source: NWS Daily Summary

Daily Weather History Graph

Daily Weather History Graph

Search for Another Location

Airport or City:

Trip Planner

Search our weather history database for the weather conditions in past years. The results will help you decide how hot, cold, wet, or windy it might be!

Date:

Astronomy

May. 24, 2014 Rise Set
Actual Time 5:38 AM EDT 8:36 PM EDT
Civil Twilight 5:05 AM EDT 9:10 PM EDT
Nautical Twilight 4:22 AM EDT 9:53 PM EDT
Astronomical Twilight 3:31 AM EDT 10:44 PM EDT
Moon 3:14 AM EDT (5/24) 4:25 PM EDT (5/24)
Length of Visible Light 16h 05m
Length of Day
14h 57m
Waning Crescent, 18% of the Moon is Illuminated
May 24
Waning Crescent
May 28
New
Jun 5
First Quarter
Jun 13
Full
Jun 19
Last Quarter

Hourly Weather History & Observations

Time (EDT) Temp. Dew Point Humidity Pressure Visibility Wind Dir Wind Speed Gust Speed Precip Events Conditions
12:54 AM 53.1 °F 50.0 °F 89% 30.06 in 9.0 mi West 9.2 mph - N/A   Partly Cloudy
1:54 AM 53.1 °F 50.0 °F 89% 30.06 in 9.0 mi West 8.1 mph - N/A   Mostly Cloudy
2:54 AM 53.1 °F 50.0 °F 89% 30.06 in 10.0 mi West 9.2 mph - N/A   Mostly Cloudy
3:54 AM 52.0 °F 48.9 °F 89% 30.06 in 10.0 mi West 5.8 mph - N/A   Scattered Clouds
4:54 AM 51.1 °F 48.0 °F 89% 30.07 in 10.0 mi West 6.9 mph - N/A   Scattered Clouds
5:54 AM 50.0 °F 48.0 °F 93% 30.09 in 7.0 mi West 8.1 mph - N/A   Partly Cloudy
6:54 AM 52.0 °F 48.9 °F 89% 30.11 in 8.0 mi West 6.9 mph - N/A   Partly Cloudy
7:54 AM 55.0 °F 50.0 °F 83% 30.12 in 10.0 mi West 8.1 mph - N/A   Mostly Cloudy
8:54 AM 59.0 °F 51.1 °F 75% 30.14 in 10.0 mi West 6.9 mph - N/A   Mostly Cloudy
9:54 AM 63.0 °F 53.1 °F 70% 30.14 in 10.0 mi NNW 6.9 mph - N/A   Scattered Clouds
10:54 AM 64.4 °F 53.6 °F 68% 30.12 in 10.0 mi WNW 6.9 mph - N/A   Scattered Clouds
11:54 AM 68.0 °F 52.0 °F 56% 30.12 in 10.0 mi Variable 5.8 mph - N/A   Scattered Clouds
12:54 PM 70.0 °F 52.0 °F 53% 30.12 in 10.0 mi NW 4.6 mph - N/A   Scattered Clouds
1:54 PM 71.6 °F 48.2 °F 43% 30.09 in 10.0 mi Variable 5.8 mph - N/A   Scattered Clouds
2:54 PM 73.0 °F 48.9 °F 42% 30.09 in 10.0 mi NNE 10.4 mph - N/A   Scattered Clouds
3:54 PM 73.9 °F 50.0 °F 43% 30.07 in 10.0 mi Variable 3.5 mph - N/A   Scattered Clouds
4:54 PM 75.0 °F 48.0 °F 38% 30.08 in 10.0 mi NNW 11.5 mph 24.2 mph N/A   Scattered Clouds
5:54 PM 73.9 °F 44.1 °F 34% 30.08 in 10.0 mi NNW 16.1 mph 20.7 mph N/A   Scattered Clouds
6:54 PM 73.0 °F 41.0 °F 31% 30.07 in 10.0 mi NNW 13.8 mph - N/A   Scattered Clouds
7:54 PM 71.1 °F 42.1 °F 35% 30.09 in 10.0 mi NW 5.8 mph - N/A   Scattered Clouds
8:54 PM 66.9 °F 51.1 °F 57% 30.09 in 10.0 mi West 6.9 mph - N/A   Scattered Clouds
9:54 PM 64.0 °F 50.0 °F 60% 30.11 in 10.0 mi West 9.2 mph - N/A   Scattered Clouds
10:54 PM 59.0 °F 46.4 °F 63% 30.11 in 10.0 mi WSW 6.9 mph - N/A   Partly Cloudy
11:54 PM 57.0 °F 46.9 °F 69% 30.13 in 10.0 mi WSW 5.8 mph - N/A   Partly Cloudy